Miscellaneous Local Product
Issued by NWS North Platte, NE

Home | Current Version | Previous Version | Graphics & Text | Print | Product List | Glossary On
Versions: 1 2 3 4 5 6 7 8 9 10 11 12 13 14 15 16 17 18 19 20 21 22 23 24 25 26 27 28 29 30 31 32 33 34 35 36 37 38 39 40 41 42 43 44 45 46 47 48 49 50
918
AXUS43 KLBF 131410
MISLBF


WESTERN AND NORTH CENTRAL NEBRASKA HOURLY WEATHER ROUNDUP
NATIONAL WEATHER SERVICE NORTH PLATTE NE
800 AM CST SAT FEB 13 2016

NOTE: "FAIR" INDICATES FEW OR NO CLOUDS BELOW 12,000 FEET WITH NO
SIGNIFICANT WEATHER AND/OR OBSTRUCTIONS TO VISIBILITY.

NOTE: STATIONS NOT REPORTING VARIABLES SUCH AS SKY/WEATHER OR
PRESSURE ARE PROVIDED BY THE NEBRASKA DEPARTMENT OF
ROADS...RAWS...AND APRS NETWORKS...AND ARE NOT UNDER
NATIONAL WEATHER SERVICE QUALITY CONTROL.

...OBSERVATIONS IN AND NEAR THE EASTERN PANHANDLE OF NEBRASKA...

CITY           SKY/WX    TMP DP  RH WIND       PRES   REMARKS
PINE RIDGE     CLOUDY    33  29  85 S18G28    30.05F WCI  22
CHADRON        CLOUDY    33  29  85 S8        30.04F WCI  26
ALLIANCE       CLOUDY    31  30  96 S15       30.07F FOG     WCI  20
SIDNEY         CLOUDY    29  29 100 S14       30.11F WCI  18
CRESCENT LAKE    N/A     29  29 100 S12         N/A  WCI  19
$$

...OBSERVATIONS IN NORTH CENTRAL NEBRASKA...

CITY           SKY/WX    TMP DP  RH WIND       PRES   REMARKS
VALENTINE      CLOUDY    23  21  92 S18       30.21F WCI   9
THEDFORD       CLOUDY    23  21  94 S16G24    30.23F FOG     WCI   9
AINSWORTH      CLOUDY    19  15  86 S20G26    30.25F WCI   3
O`NEILL        CLOUDY    15  10  82 SE14      30.39S WCI   0
ORD            CLOUDY    15   8  73 SE14      30.39F WCI   0
BROKEN BOW     CLOUDY    17  11  77 S18       30.33F WCI   1
VALENTINE NWR    N/A     21  20  94 S15G24      N/A  WCI   8
BUTTE            N/A     13  10  87 SE15G25     N/A  WCI  -3
HALSEY           N/A     20  18  91 S8G15       N/A  WCI  10
CHAMBERS         N/A     14   6  72 S5G12       N/A  WCI   6
EWING            N/A     12   9  87 SE7         N/A  WCI   1
$$

...OBSERVATIONS IN SOUTHWEST NEBRASKA AND FAR NORTHEAST COLORADO...

CITY           SKY/WX    TMP DP  RH WIND       PRES   REMARKS
WRAY           CLOUDY   N/A N/A N/A S16       30.19F
HOLYOKE        CLOUDY    32  30  93 S14       30.18S FOG     WCI  22
IMPERIAL       CLOUDY    26  24  92 S17       30.22F WCI  13
OGALLALA       CLOUDY    29  27  92 S10G16    30.20S FOG     WCI  20
NORTH PLATTE   CLOUDY    21  19  92 SE12      30.27F WCI   9
MCCOOK         CLOUDY    21  19  92 SE10      30.33F WCI  10
LEXINGTON      CLOUDY    20  15  79 SE14      30.35F WCI   7
STAPLETON        N/A     20  19  93 CALM        N/A
$$

...OBSERVATIONS IN CENTRAL LINCOLN COUNTY AREA...

CITY           SKY/WX    TMP DP  RH WIND       PRES   REMARKS
N.P. AIRPORT   CLOUDY    21  19  92 SE12      30.27F WCI   9
N.P. DOWNTOWN    N/A     21  20  94 SE6G13      N/A  WCI  13
N.P. SOUTHEAST   N/A     20  18  92 S10G18      N/A  WCI   9
N.P. HILLCREST   N/A     21  20  96 S12         N/A  WCI   9
$$

...SOME OBSERVATIONS FROM AROUND THE REGION...

CITY           SKY/WX    TMP DP  RH WIND       PRES   REMARKS
DENVER         FOG       29  26  89 CALM      30.08S VSB 1/16
LARAMIE        CLOUDY    37  17  44 SW20      30.10F WCI  27
CHEYENNE       CLOUDY    37  20  50 W6        30.05F WCI  32
SCOTTSBLUFF    CLOUDY    30  28  92 SE9       30.07F WCI  22
RAPID CITY     CLOUDY    30  28  92 SE8       30.01F WCI  22
BISMARCK       CLOUDY    10  -3  55 SE16      30.26F WCI  -7
PIERRE         CLOUDY    14   9  80 SE20      30.27F WCI  -3
WINNER         CLOUDY    20  13  74 S23G33    30.26F WCI   3
SIOUX FALLS    CLOUDY     2  -7  66 SE12      30.54R WCI -15
OMAHA          CLOUDY    10   1  67 E9        30.61F WCI  -3
GRAND ISLAND   CLOUDY    14   6  70 SE13      30.46F WCI   0
KANSAS CITY    CLOUDY    16   3  56 E9        30.59F WCI   4
WICHITA        CLOUDY    23   7  50 E13       30.49R WCI  11
OKLAHOMA CITY  PTCLDY    31  20  63 E13       30.43R WCI  21
LIBERAL        CLOUDY    27  21  80 SE14      30.31F WCI  15
HAYS           CLOUDY    21   9  58 SE13      30.42F WCI   9
GOODLAND       FOG       25  24  96 S22       30.23S VSB 1/2 WCI  10
$$




USA.gov is the U.S. government's official web portal to all federal, state and local government web resources and services.